ENY3400 KMIA-MYEM

Flight info

Callsign ENY3400
Flight time 0h 42m
Altitude 31000
Route KLADA2 RAJAY
Aircraft E75L/M-SDE3GILORVW/S

Departure

Time 2026-04-25 16:59
Airport Miami International Airport (KMIA)

Arrival

Time 2026-04-25 17:41
Airport Governor's Harbour Airport (MYEM)
Time Latitude Longitude Altitude Speed Heading
2026-04-25 16:12 25.79734 -80.28617 17 ft 0 kts 140°
2026-04-25 16:48 25.79736 -80.28619 17 ft 3 kts 139°
2026-04-25 16:48 25.79753 -80.28641 19 ft 4 kts 120°
2026-04-25 16:49 25.79765 -80.28669 18 ft 4 kts 111°
2026-04-25 16:49 25.79777 -80.28694 17 ft 4 kts 131°
2026-04-25 16:49 25.79799 -80.28710 18 ft 4 kts 166°
2026-04-25 16:49 25.79816 -80.28712 18 ft 0 kts 179°
2026-04-25 16:52 25.79813 -80.28712 19 ft 1 kts 180°
2026-04-25 16:52 25.79804 -80.28712 18 ft 2 kts 181°
2026-04-25 16:52 25.79788 -80.28713 17 ft 3 kts 183°
2026-04-25 16:52 25.79768 -80.28717 19 ft 3 kts 206°
2026-04-25 16:53 25.79759 -80.28754 17 ft 3 kts 266°
2026-04-25 16:53 25.79760 -80.28778 17 ft 3 kts 283°
2026-04-25 16:53 25.79769 -80.28797 20 ft 3 kts 304°
2026-04-25 16:54 25.79783 -80.28811 18 ft 3 kts 330°
2026-04-25 16:54 25.79810 -80.28817 20 ft 6 kts 356°
2026-04-25 16:54 25.79843 -80.28819 19 ft 9 kts 358°
2026-04-25 16:54 25.79920 -80.28823 20 ft 13 kts 357°
2026-04-25 16:55 25.80009 -80.28858 19 ft 15 kts 295°
2026-04-25 16:55 25.80008 -80.28991 18 ft 19 kts 266°
2026-04-25 16:55 25.80003 -80.29099 19 ft 12 kts 267°
2026-04-25 16:55 25.79999 -80.29201 19 ft 15 kts 269°
2026-04-25 16:56 25.79995 -80.29322 17 ft 18 kts 267°
2026-04-25 16:56 25.79990 -80.29407 13 ft 13 kts 265°
2026-04-25 16:56 25.79985 -80.29530 11 ft 18 kts 268°
2026-04-25 16:56 25.79980 -80.29677 12 ft 17 kts 268°
2026-04-25 16:57 25.79975 -80.29793 11 ft 15 kts 267°
2026-04-25 16:57 25.79971 -80.29862 10 ft 13 kts 266°
2026-04-25 16:57 25.79967 -80.30011 10 ft 13 kts 268°
2026-04-25 16:57 25.79991 -80.30100 12 ft 12 kts 304°
2026-04-25 16:58 25.80059 -80.30129 13 ft 8 kts 34°
2026-04-25 16:58 25.80072 -80.30084 11 ft 0 kts 85°
2026-04-25 16:58 25.80076 -80.29995 10 ft 42 kts 87°
2026-04-25 16:58 25.80101 -80.29385 15 ft 114 kts 88°
2026-04-25 16:59 25.80149 -80.28301 198 ft 158 kts 89°
2026-04-25 16:59 25.80186 -80.27040 940 ft 167 kts 89°
2026-04-25 16:59 25.80228 -80.25726 1853 ft 180 kts 92°
2026-04-25 16:59 25.79997 -80.24225 2683 ft 217 kts 107°
2026-04-25 17:00 25.79381 -80.22524 3470 ft 259 kts 117°
2026-04-25 17:00 25.78367 -80.20689 4282 ft 299 kts 123°
2026-04-25 17:00 25.77197 -80.18731 5079 ft 314 kts 121°
2026-04-25 17:00 25.76098 -80.16582 5861 ft 325 kts 119°
2026-04-25 17:01 25.74997 -80.14345 6638 ft 334 kts 117°
2026-04-25 17:01 25.73934 -80.12024 7378 ft 342 kts 116°
2026-04-25 17:01 25.72929 -80.09604 8129 ft 348 kts 112°
2026-04-25 17:01 25.72061 -80.07077 8903 ft 352 kts 111°
2026-04-25 17:02 25.71204 -80.04519 9704 ft 354 kts 110°
2026-04-25 17:02 25.70362 -80.01977 10425 ft 355 kts 110°
2026-04-25 17:02 25.69510 -79.99399 11162 ft 356 kts 110°
2026-04-25 17:02 25.68941 -79.97683 11658 ft 358 kts 110°
2026-04-25 17:03 25.67788 -79.94203 12678 ft 361 kts 110°
2026-04-25 17:03 25.66917 -79.91579 13465 ft 365 kts 110°
2026-04-25 17:03 25.66033 -79.88919 14215 ft 369 kts 110°
2026-04-25 17:03 25.65138 -79.86227 14939 ft 374 kts 110°
2026-04-25 17:04 25.64234 -79.83510 15680 ft 378 kts 110°
2026-04-25 17:04 25.63320 -79.80767 16435 ft 381 kts 110°
2026-04-25 17:04 25.62414 -79.78045 17200 ft 382 kts 110°
2026-04-25 17:04 25.61487 -79.75268 17992 ft 384 kts 111°
2026-04-25 17:05 25.60551 -79.72494 18711 ft 385 kts 111°
2026-04-25 17:05 25.58915 -79.66852 20163 ft 388 kts 106°
2026-04-25 17:05 25.58165 -79.63973 20907 ft 390 kts 106°
2026-04-25 17:06 25.57416 -79.61073 21676 ft 391 kts 106°
2026-04-25 17:06 25.56669 -79.58178 22461 ft 391 kts 105°
2026-04-25 17:06 25.55920 -79.55284 23271 ft 390 kts 105°
2026-04-25 17:06 25.55172 -79.52396 23999 ft 388 kts 105°
2026-04-25 17:07 25.54428 -79.49526 24653 ft 388 kts 106°
2026-04-25 17:07 25.53666 -79.46591 24807 ft 405 kts 106°
2026-04-25 17:07 25.52869 -79.43528 24911 ft 422 kts 106°
2026-04-25 17:07 25.52040 -79.40337 24979 ft 439 kts 106°
2026-04-25 17:08 25.51198 -79.37113 24999 ft 456 kts 106°
2026-04-25 17:08 25.50289 -79.33624 25004 ft 470 kts 106°
2026-04-25 17:08 25.49376 -79.30126 24996 ft 474 kts 106°
2026-04-25 17:08 25.48458 -79.26616 24986 ft 473 kts 106°
2026-04-25 17:09 25.47542 -79.23110 24973 ft 473 kts 106°
2026-04-25 17:09 25.46626 -79.19613 24966 ft 472 kts 106°
2026-04-25 17:09 25.45722 -79.16166 24974 ft 473 kts 106°
2026-04-25 17:09 25.44806 -79.12672 24979 ft 473 kts 106°
2026-04-25 17:10 25.43887 -79.09175 24970 ft 472 kts 106°
2026-04-25 17:10 25.42969 -79.05685 24969 ft 472 kts 106°
2026-04-25 17:10 25.42048 -79.02183 24977 ft 473 kts 107°
2026-04-25 17:10 25.41126 -78.98688 24978 ft 473 kts 107°
2026-04-25 17:11 25.40203 -78.95191 24970 ft 473 kts 107°
2026-04-25 17:11 25.39293 -78.91742 24969 ft 472 kts 107°
2026-04-25 17:11 25.38370 -78.88251 24973 ft 473 kts 107°
2026-04-25 17:11 25.37445 -78.84756 24976 ft 473 kts 107°
2026-04-25 17:12 25.36516 -78.81248 24969 ft 472 kts 107°
2026-04-25 17:12 25.35592 -78.77765 24967 ft 472 kts 107°
2026-04-25 17:12 25.34664 -78.74271 24970 ft 472 kts 107°
2026-04-25 17:12 25.33740 -78.70791 24972 ft 472 kts 107°
2026-04-25 17:13 25.32823 -78.67343 24968 ft 472 kts 107°
2026-04-25 17:13 25.32194 -78.64981 24963 ft 472 kts 107°
2026-04-25 17:13 25.30963 -78.60363 24973 ft 472 kts 107°
2026-04-25 17:13 25.30031 -78.56873 24970 ft 472 kts 107°
2026-04-25 17:14 25.29114 -78.53440 24969 ft 472 kts 107°
2026-04-25 17:14 25.28183 -78.49947 24969 ft 472 kts 106°
2026-04-25 17:14 25.27630 -78.46382 24965 ft 472 kts 94°
2026-04-25 17:14 25.27511 -78.42749 24977 ft 472 kts 89°
2026-04-25 17:15 25.27780 -78.39143 24969 ft 470 kts 81°
2026-04-25 17:15 25.28167 -78.35543 24966 ft 470 kts 82°
2026-04-25 17:15 25.28567 -78.31992 24969 ft 470 kts 82°
2026-04-25 17:15 25.28972 -78.28400 24970 ft 470 kts 81°
2026-04-25 17:16 25.29377 -78.24809 24971 ft 470 kts 82°
2026-04-25 17:16 25.29679 -78.21202 24959 ft 471 kts 90°
2026-04-25 17:16 25.29344 -78.17590 24971 ft 472 kts 98°
2026-04-25 17:16 25.28804 -78.14057 24979 ft 472 kts 100°
2026-04-25 17:17 25.28205 -78.10473 24975 ft 472 kts 99°
2026-04-25 17:17 25.27789 -78.06863 24964 ft 472 kts 96°
2026-04-25 17:17 25.27413 -78.03308 24972 ft 472 kts 96°
2026-04-25 17:17 25.27053 -77.99698 24976 ft 472 kts 96°
2026-04-25 17:18 25.26694 -77.96089 24969 ft 472 kts 96°
2026-04-25 17:18 25.26337 -77.92497 24969 ft 470 kts 96°
2026-04-25 17:18 25.25977 -77.88905 24968 ft 470 kts 96°
2026-04-25 17:18 25.25616 -77.85308 24973 ft 470 kts 96°
2026-04-25 17:19 25.25261 -77.81766 24973 ft 470 kts 96°
2026-04-25 17:19 25.24899 -77.78176 24969 ft 470 kts 96°
2026-04-25 17:19 25.24535 -77.74588 24973 ft 470 kts 96°
2026-04-25 17:19 25.24172 -77.71004 24983 ft 470 kts 96°
2026-04-25 17:20 25.23808 -77.67421 24981 ft 470 kts 96°
2026-04-25 17:20 25.23442 -77.63837 24985 ft 470 kts 96°
2026-04-25 17:20 25.23077 -77.60256 24991 ft 470 kts 96°
2026-04-25 17:20 25.22710 -77.56664 24988 ft 470 kts 96°
2026-04-25 17:21 25.22340 -77.53078 24997 ft 470 kts 96°
2026-04-25 17:21 25.21971 -77.49485 24987 ft 470 kts 97°
2026-04-25 17:21 25.21601 -77.45893 24274 ft 469 kts 96°
2026-04-25 17:21 25.21233 -77.42340 23483 ft 462 kts 96°
2026-04-25 17:22 25.20870 -77.38842 22576 ft 455 kts 96°
2026-04-25 17:22 25.20632 -77.36556 21991 ft 451 kts 96°
2026-04-25 17:22 25.20157 -77.31992 20844 ft 443 kts 96°
2026-04-25 17:22 25.19808 -77.28635 20010 ft 437 kts 96°
2026-04-25 17:23 25.19460 -77.25315 19207 ft 432 kts 96°
2026-04-25 17:23 25.19116 -77.22035 18428 ft 428 kts 96°
2026-04-25 17:23 25.18776 -77.18790 17563 ft 424 kts 96°
2026-04-25 17:23 25.18439 -77.15584 16700 ft 419 kts 96°
2026-04-25 17:24 25.18103 -77.12398 15853 ft 414 kts 96°
2026-04-25 17:24 25.17774 -77.09293 15045 ft 410 kts 96°
2026-04-25 17:24 25.17445 -77.06186 14241 ft 405 kts 96°
2026-04-25 17:24 25.17118 -77.03108 13431 ft 401 kts 96°
2026-04-25 17:25 25.16795 -77.00066 12567 ft 396 kts 96°
2026-04-25 17:25 25.16475 -76.97061 11724 ft 392 kts 96°
2026-04-25 17:25 25.16157 -76.94089 10902 ft 387 kts 97°
2026-04-25 17:25 25.15843 -76.91149 10093 ft 382 kts 97°
2026-04-25 17:26 25.15532 -76.88255 9249 ft 378 kts 97°
2026-04-25 17:26 25.15233 -76.85459 8818 ft 363 kts 97°
2026-04-25 17:26 25.14941 -76.82750 8408 ft 348 kts 97°
2026-04-25 17:26 25.14659 -76.80137 7998 ft 337 kts 97°
2026-04-25 17:27 25.14385 -76.77604 7596 ft 327 kts 97°
2026-04-25 17:27 25.14120 -76.75146 7201 ft 318 kts 97°
2026-04-25 17:27 25.13861 -76.72750 6808 ft 311 kts 96°
2026-04-25 17:27 25.13777 -76.71978 6675 ft 309 kts 97°
2026-04-25 17:28 25.13360 -76.68129 6023 ft 298 kts 96°
2026-04-25 17:28 25.13114 -76.65875 5620 ft 293 kts 96°
2026-04-25 17:28 25.12872 -76.63655 5214 ft 288 kts 96°
2026-04-25 17:28 25.12635 -76.61472 4822 ft 284 kts 96°
2026-04-25 17:29 25.12401 -76.59323 4415 ft 280 kts 96°
2026-04-25 17:29 25.12170 -76.57223 4023 ft 277 kts 96°
2026-04-25 17:29 25.11940 -76.55125 3633 ft 273 kts 96°
2026-04-25 17:29 25.11714 -76.53050 3245 ft 271 kts 96°
2026-04-25 17:30 25.11491 -76.51013 3039 ft 260 kts 96°
2026-04-25 17:30 25.11280 -76.49105 2968 ft 247 kts 96°
2026-04-25 17:30 25.11078 -76.47273 2938 ft 233 kts 96°
2026-04-25 17:30 25.10622 -76.45634 2942 ft 214 kts 115°
2026-04-25 17:31 25.09963 -76.44247 2927 ft 194 kts 117°
2026-04-25 17:31 25.09331 -76.42998 2898 ft 178 kts 118°
2026-04-25 17:31 25.08711 -76.41876 2898 ft 169 kts 130°
2026-04-25 17:31 25.07761 -76.41124 2951 ft 168 kts 147°
2026-04-25 17:32 25.06745 -76.40445 2800 ft 171 kts 148°
2026-04-25 17:32 25.05819 -76.39678 2750 ft 166 kts 123°
2026-04-25 17:32 25.05628 -76.38471 2781 ft 162 kts 73°
2026-04-25 17:32 25.06050 -76.37404 2837 ft 144 kts 63°
2026-04-25 17:33 25.06497 -76.36451 2905 ft 141 kts 62°
2026-04-25 17:33 25.06971 -76.35487 2952 ft 143 kts 61°
2026-04-25 17:33 25.07455 -76.34518 2980 ft 145 kts 61°
2026-04-25 17:33 25.07946 -76.33548 2973 ft 144 kts 60°
2026-04-25 17:34 25.08425 -76.32603 2948 ft 136 kts 61°
2026-04-25 17:34 25.08898 -76.31714 2942 ft 132 kts 58°
2026-04-25 17:34 25.09387 -76.30854 2949 ft 132 kts 57°
2026-04-25 17:34 25.09879 -76.30008 2963 ft 133 kts 57°
2026-04-25 17:35 25.10381 -76.29157 2975 ft 132 kts 57°
2026-04-25 17:35 25.10884 -76.28309 2959 ft 133 kts 57°
2026-04-25 17:35 25.11393 -76.27457 2965 ft 133 kts 57°
2026-04-25 17:35 25.11909 -76.26592 2846 ft 134 kts 57°
2026-04-25 17:36 25.12417 -76.25741 2692 ft 133 kts 57°
2026-04-25 17:36 25.12917 -76.24905 2547 ft 132 kts 56°
2026-04-25 17:36 25.13419 -76.24067 2416 ft 130 kts 56°
2026-04-25 17:36 25.14162 -76.23553 2306 ft 132 kts
2026-04-25 17:37 25.15062 -76.23828 2303 ft 135 kts 343°
2026-04-25 17:37 25.15936 -76.24173 2292 ft 135 kts 341°
2026-04-25 17:37 25.16826 -76.24514 2261 ft 135 kts 343°
2026-04-25 17:37 25.17705 -76.24878 2270 ft 134 kts 340°
2026-04-25 17:38 25.18534 -76.25335 2262 ft 137 kts 329°
2026-04-25 17:38 25.18804 -76.25529 2228 ft 136 kts 328°
2026-04-25 17:38 25.20067 -76.26559 2074 ft 135 kts 324°
2026-04-25 17:38 25.20818 -76.27191 1946 ft 136 kts 325°
2026-04-25 17:39 25.21591 -76.27792 1718 ft 136 kts 328°
2026-04-25 17:39 25.22379 -76.28367 1496 ft 137 kts 328°
2026-04-25 17:39 25.23186 -76.28953 1352 ft 139 kts 328°
2026-04-25 17:39 25.23963 -76.29564 1158 ft 138 kts 324°
2026-04-25 17:40 25.24737 -76.30187 917 ft 137 kts 327°
2026-04-25 17:40 25.25517 -76.30799 649 ft 137 kts 324°
2026-04-25 17:40 25.26299 -76.31422 460 ft 140 kts 326°
2026-04-25 17:40 25.26834 -76.31842 311 ft 144 kts 327°
2026-04-25 17:41 25.27907 -76.32671 37 ft 133 kts 326°
2026-04-25 17:41 25.28578 -76.33185 21 ft 99 kts 325°
2026-04-25 17:41 25.28816 -76.33371 21 ft 32 kts 324°
2026-04-25 17:41 25.28906 -76.33438 24 ft 4 kts 229°
2026-04-25 17:42 25.28879 -76.33424 24 ft 8 kts 140°
2026-04-25 17:42 25.28813 -76.33368 21 ft 16 kts 144°
2026-04-25 17:42 25.28705 -76.33284 22 ft 21 kts 144°
2026-04-25 17:42 25.28583 -76.33189 21 ft 20 kts 145°
2026-04-25 17:43 25.28450 -76.33088 20 ft 27 kts 147°
2026-04-25 17:43 25.28279 -76.32963 20 ft 33 kts 144°
2026-04-25 17:43 25.28087 -76.32810 27 ft 30 kts 146°
2026-04-25 17:43 25.27923 -76.32681 29 ft 24 kts 143°
2026-04-25 17:44 25.27815 -76.32586 29 ft 17 kts 107°
2026-04-25 17:44 25.27850 -76.32486 23 ft 9 kts 56°
2026-04-25 17:44 25.27881 -76.32434 22 ft 5 kts 57°
2026-04-25 17:44 25.27894 -76.32411 24 ft 2 kts 59°
2026-04-25 17:45 25.27899 -76.32402 22 ft 0 kts 55°